Weather History for Beaufort MCAS, SC

Change the Weather History Date:

Saturday, June 2, 2012

  Actual Average Record
Temperature  
Mean Temperature 75 °F -  
Max Temperature 84 °F 86 °F 102 °F (2002)
Min Temperature 66 °F 67 °F 52 °F (1955)
Cooling Degree Days 10    
Growing Degree Days 25 (Base 50)    
Moisture  
Dew Point 59 °F    
Average Humidity 61    
Maximum Humidity 90    
Minimum Humidity 32    
Precipitation  
Precipitation 0.00 in - - ()
Sea Level Pressure  
Sea Level Pressure 29.85 in    
Wind  
Wind Speed 6 mph (WNW)    
Max Wind Speed 16 mph    
Max Gust Speed 22 mph    
Visibility 10 miles    
Events      
Averages and records for this station are not official NWS values.
T = Trace of Precipitation, MM = Missing Value Source: NWS Daily Summary

Daily Weather History Graph

Daily Weather History Graph

Search for Another Location

Airport:

Trip Planner

Search our weather history database for the weather conditions in past years. The results will help you decide how hot, cold, wet, or windy it might be!

Date:

Astronomy

Jun. 02, 2012 Rise Set
Actual Time 6:16 AM EDT 8:26 PM EDT
Civil Twilight 5:48 AM EDT 8:54 PM EDT
Nautical Twilight 5:13 AM EDT 9:28 PM EDT
Astronomical Twilight 4:36 AM EDT 10:05 PM EDT
Moon 6:42 PM EDT (6/2) 4:28 AM EDT (6/2)
Length of Visible Light 15h 06m
Length of Day
14h 10m
Waxing Gibbous, 95% of the Moon is Illuminated
Jun 2
Waxing Gibbous
Jun 4
Full
Jun 11
Last Quarter
Jun 19
New
Jun 26
First Quarter

Hourly Weather History & Observations

Time (EDT) Temp. Heat Index Dew Point Humidity Pressure Visibility Wind Dir Wind Speed Gust Speed Precip Events Conditions
12:56 AM 73.0 °F - 69.1 °F 87% 29.82 in 10.0 mi SW 3.5 mph - N/A   Partly Cloudy
1:56 AM 73.0 °F - 68.0 °F 84% 29.82 in 10.0 mi WSW 5.8 mph - N/A   Mostly Cloudy
2:56 AM 72.0 °F - 68.0 °F 87% 29.80 in 10.0 mi WNW 6.9 mph - N/A   Partly Cloudy
3:56 AM 71.1 °F - 68.0 °F 90% 29.80 in 10.0 mi WNW 5.8 mph - N/A   Scattered Clouds
4:56 AM 71.1 °F - 66.9 °F 87% 29.79 in 10.0 mi West 5.8 mph - N/A   Scattered Clouds
5:56 AM 70.0 °F - 66.9 °F 90% 29.81 in 10.0 mi West 4.6 mph - N/A   Clear
6:56 AM 71.1 °F - 68.0 °F 90% 29.82 in 10.0 mi WNW 4.6 mph - N/A   Partly Cloudy
7:56 AM 72.0 °F - 66.9 °F 84% 29.84 in 10.0 mi NW 8.1 mph - N/A   Partly Cloudy
8:56 AM 75.0 °F - 64.9 °F 71% 29.86 in 10.0 mi NW 6.9 mph - N/A   Clear
9:56 AM 78.1 °F - 62.1 °F 58% 29.86 in 10.0 mi North 6.9 mph - N/A   Clear
10:56 AM 79.0 °F - 62.1 °F 56% 29.88 in 10.0 mi NW 10.4 mph - N/A   Clear
11:56 AM 81.0 °F 81.6 °F 60.1 °F 49% 29.88 in 10.0 mi NW 10.4 mph - N/A   Clear
12:56 PM 81.0 °F 81.0 °F 57.0 °F 44% 29.87 in 10.0 mi West 9.2 mph - N/A   Clear
1:56 PM 82.9 °F 82.0 °F 55.0 °F 38% 29.86 in 10.0 mi West 15.0 mph 21.9 mph N/A   Clear
2:56 PM 84.0 °F - 52.0 °F 33% 29.85 in 10.0 mi WNW 16.1 mph 20.7 mph N/A   Clear
3:56 PM 82.9 °F - 50.0 °F 32% 29.84 in 10.0 mi West 9.2 mph - N/A   Clear
4:56 PM 82.9 °F - 50.0 °F 32% 29.84 in 10.0 mi West 10.4 mph - N/A   Clear
5:56 PM 82.0 °F - 50.0 °F 33% 29.85 in 10.0 mi WNW 9.2 mph 19.6 mph N/A   Clear
6:56 PM 81.0 °F - 48.9 °F 33% 29.85 in 10.0 mi WNW 8.1 mph - N/A   Clear
7:56 PM 78.1 °F - 50.0 °F 37% 29.87 in 10.0 mi West 4.6 mph - N/A   Clear
8:56 PM 73.9 °F - 55.0 °F 52% 29.89 in 10.0 mi Calm Calm - N/A   Clear
9:56 PM 70.0 °F - 55.0 °F 59% 29.91 in 10.0 mi Calm Calm - N/A   Clear
10:56 PM 66.9 °F - 57.0 °F 70% 29.93 in 10.0 mi WSW 3.5 mph - N/A   Clear
11:56 PM 66.0 °F - 57.0 °F 73% 29.94 in 10.0 mi West 3.5 mph - N/A   Clear